Year,Month,Day,Hour,Minute,Value (Times are PST for temperature in C)
2021,06,27,00,00,15.90
2021,06,27,00,01,15.80
2021,06,27,00,02,15.80
2021,06,27,00,03,15.70
2021,06,27,00,04,15.60
2021,06,27,00,05,15.60
2021,06,27,00,06,15.60
2021,06,27,00,07,15.60
2021,06,27,00,08,15.70
2021,06,27,00,09,15.70
2021,06,27,00,10,15.70
2021,06,27,00,11,15.80
2021,06,27,00,12,15.80
2021,06,27,00,13,15.80
2021,06,27,00,14,15.80
2021,06,27,00,15,15.80
2021,06,27,00,16,15.80
2021,06,27,00,17,15.80
2021,06,27,00,18,15.80
2021,06,27,00,19,15.80
2021,06,27,00,20,15.80
2021,06,27,00,21,15.80
2021,06,27,00,22,15.80
2021,06,27,00,23,15.80
2021,06,27,00,24,15.80
2021,06,27,00,25,15.80
2021,06,27,00,26,15.80
2021,06,27,00,27,15.80
2021,06,27,00,28,15.80
2021,06,27,00,29,15.70
2021,06,27,00,30,15.70
2021,06,27,00,31,15.60
2021,06,27,00,32,15.60
2021,06,27,00,33,15.50
2021,06,27,00,34,15.40
2021,06,27,00,35,15.40
2021,06,27,00,36,15.40
2021,06,27,00,37,15.30
2021,06,27,00,38,15.30
2021,06,27,00,39,15.30
2021,06,27,00,40,15.30
2021,06,27,00,41,15.30
2021,06,27,00,42,15.40
2021,06,27,00,43,15.40
2021,06,27,00,44,15.40
2021,06,27,00,45,15.40
2021,06,27,00,46,15.40
2021,06,27,00,47,15.40
2021,06,27,00,48,15.40
2021,06,27,00,49,15.40
2021,06,27,00,50,15.40
2021,06,27,00,51,15.50
2021,06,27,00,52,15.60
2021,06,27,00,53,15.60
2021,06,27,00,54,15.60
2021,06,27,00,55,15.60
2021,06,27,00,56,15.70
2021,06,27,00,57,15.70
2021,06,27,00,58,15.70
2021,06,27,00,59,15.70
2021,06,27,01,00,15.60
2021,06,27,01,01,15.60
2021,06,27,01,02,15.60
2021,06,27,01,03,15.60
2021,06,27,01,04,15.60
2021,06,27,01,05,15.60
2021,06,27,01,06,15.60
2021,06,27,01,07,15.60
2021,06,27,01,08,15.60
2021,06,27,01,09,15.60
2021,06,27,01,10,15.50
2021,06,27,01,11,15.40
2021,06,27,01,12,15.30
2021,06,27,01,13,15.30
2021,06,27,01,14,15.30
2021,06,27,01,15,15.20
2021,06,27,01,16,15.20
2021,06,27,01,17,15.20
2021,06,27,01,18,15.20
2021,06,27,01,19,15.30
2021,06,27,01,20,15.30
2021,06,27,01,21,15.30
2021,06,27,01,22,15.30
2021,06,27,01,23,15.20
2021,06,27,01,24,15.20
2021,06,27,01,25,15.20
2021,06,27,01,26,15.20
2021,06,27,01,27,15.20
2021,06,27,01,28,15.20
2021,06,27,01,29,15.20
2021,06,27,01,30,15.20
2021,06,27,01,31,15.20
2021,06,27,01,32,15.20
2021,06,27,01,33,15.20
2021,06,27,01,34,15.20
2021,06,27,01,35,15.20
2021,06,27,01,36,15.20
2021,06,27,01,37,15.20
2021,06,27,01,38,15.20
2021,06,27,01,39,15.10
2021,06,27,01,40,15.10
2021,06,27,01,41,15.10
2021,06,27,01,42,15.10
2021,06,27,01,43,15.10
2021,06,27,01,44,15.10
2021,06,27,01,45,15.10
2021,06,27,01,46,15.10
2021,06,27,01,47,15.10
2021,06,27,01,48,15.10
2021,06,27,01,49,15.00
2021,06,27,01,50,15.00
2021,06,27,01,51,15.00
2021,06,27,01,52,15.00
2021,06,27,01,53,15.00
2021,06,27,01,54,15.00
2021,06,27,01,55,15.00
2021,06,27,01,56,15.00
2021,06,27,01,57,15.00
2021,06,27,01,58,15.00
2021,06,27,01,59,15.00
2021,06,27,02,00,15.00
2021,06,27,02,01,15.00
2021,06,27,02,02,15.00
2021,06,27,02,03,15.00
2021,06,27,02,04,15.00
2021,06,27,02,05,15.10
2021,06,27,02,06,15.10
2021,06,27,02,07,15.10
2021,06,27,02,08,15.00
2021,06,27,02,09,15.00
2021,06,27,02,10,14.90
2021,06,27,02,11,14.80
2021,06,27,02,12,14.80
2021,06,27,02,13,14.70
2021,06,27,02,14,14.60
2021,06,27,02,15,14.50
2021,06,27,02,16,14.50
2021,06,27,02,17,14.40
2021,06,27,02,18,14.30
2021,06,27,02,19,14.30
2021,06,27,02,20,14.30
2021,06,27,02,21,14.40
2021,06,27,02,22,14.40
2021,06,27,02,23,14.50
2021,06,27,02,24,14.50
2021,06,27,02,25,14.50
2021,06,27,02,26,14.50
2021,06,27,02,27,14.50
2021,06,27,02,28,14.50
2021,06,27,02,29,14.50
2021,06,27,02,30,14.50
2021,06,27,02,31,14.50
2021,06,27,02,32,14.50
2021,06,27,02,33,14.50
2021,06,27,02,34,14.50
2021,06,27,02,35,14.50
2021,06,27,02,36,14.40
2021,06,27,02,37,14.40
2021,06,27,02,38,14.40
2021,06,27,02,39,14.40
2021,06,27,02,40,14.40
2021,06,27,02,41,14.40
2021,06,27,02,42,14.40
2021,06,27,02,43,14.30
2021,06,27,02,44,14.30
2021,06,27,02,45,14.30
2021,06,27,02,46,14.30
2021,06,27,02,47,14.30
2021,06,27,02,48,14.30
2021,06,27,02,49,14.30
2021,06,27,02,50,14.30
2021,06,27,02,51,14.30
2021,06,27,02,52,14.30
2021,06,27,02,53,14.30
2021,06,27,02,54,14.30
2021,06,27,02,55,14.30
2021,06,27,02,56,14.30
2021,06,27,02,57,14.30
2021,06,27,02,58,14.30
2021,06,27,02,59,14.40
2021,06,27,03,00,14.40
2021,06,27,03,01,14.40
2021,06,27,03,02,14.40
2021,06,27,03,03,14.40
2021,06,27,03,04,14.40
2021,06,27,03,05,14.40
2021,06,27,03,06,14.40
2021,06,27,03,07,14.40
2021,06,27,03,08,14.40
2021,06,27,03,09,14.40
2021,06,27,03,10,14.30
2021,06,27,03,11,14.30
2021,06,27,03,12,14.30
2021,06,27,03,13,14.30
2021,06,27,03,14,14.20
2021,06,27,03,15,14.20
2021,06,27,03,16,14.20
2021,06,27,03,17,14.20
2021,06,27,03,18,14.20
2021,06,27,03,19,14.10
2021,06,27,03,20,14.10
2021,06,27,03,21,14.10
2021,06,27,03,22,14.10
2021,06,27,03,23,14.10
2021,06,27,03,24,14.10
2021,06,27,03,25,14.10
2021,06,27,03,26,14.10
2021,06,27,03,27,14.10
2021,06,27,03,28,14.10
2021,06,27,03,29,14.10
2021,06,27,03,30,14.10
2021,06,27,03,31,14.10
2021,06,27,03,32,14.10
2021,06,27,03,33,14.10
2021,06,27,03,34,14.10
2021,06,27,03,35,14.10
2021,06,27,03,36,14.10
2021,06,27,03,37,14.10
2021,06,27,03,38,14.10
2021,06,27,03,39,14.10
2021,06,27,03,40,14.10
2021,06,27,03,41,14.10
2021,06,27,03,42,14.10
2021,06,27,03,43,14.10
2021,06,27,03,44,14.20
2021,06,27,03,45,14.20
2021,06,27,03,46,14.20
2021,06,27,03,47,14.20
2021,06,27,03,48,14.30
2021,06,27,03,49,14.30
2021,06,27,03,50,14.30
2021,06,27,03,51,14.30
2021,06,27,03,52,14.30
2021,06,27,03,53,14.30
2021,06,27,03,54,14.40
2021,06,27,03,55,14.40
2021,06,27,03,56,14.50
2021,06,27,03,57,14.50
2021,06,27,03,58,14.60
2021,06,27,03,59,14.60
2021,06,27,04,00,14.70
2021,06,27,04,01,14.80
2021,06,27,04,02,14.80
2021,06,27,04,03,14.80
2021,06,27,04,04,14.90
2021,06,27,04,05,14.90
2021,06,27,04,06,14.90
2021,06,27,04,07,14.80
2021,06,27,04,08,14.80
2021,06,27,04,09,14.80
2021,06,27,04,10,14.70
2021,06,27,04,11,14.70
2021,06,27,04,12,14.70
2021,06,27,04,13,14.70
2021,06,27,04,14,14.70
2021,06,27,04,15,14.60
2021,06,27,04,16,14.60
2021,06,27,04,17,14.60
2021,06,27,04,18,14.60
2021,06,27,04,19,14.60
2021,06,27,04,20,14.60
2021,06,27,04,21,14.60
2021,06,27,04,22,14.70
2021,06,27,04,23,14.70
2021,06,27,04,24,14.80
2021,06,27,04,25,14.80
2021,06,27,04,26,14.90
2021,06,27,04,27,15.00
2021,06,27,04,28,15.10
2021,06,27,04,29,15.10
2021,06,27,04,30,15.10
2021,06,27,04,31,15.10
2021,06,27,04,32,15.10
2021,06,27,04,33,15.10
2021,06,27,04,34,15.00
2021,06,27,04,35,15.00
2021,06,27,04,36,15.00
2021,06,27,04,37,15.00
2021,06,27,04,38,15.00
2021,06,27,04,39,15.10
2021,06,27,04,40,15.10
2021,06,27,04,41,15.20
2021,06,27,04,42,15.20
2021,06,27,04,43,15.20
2021,06,27,04,44,15.30
2021,06,27,04,45,15.30
2021,06,27,04,46,15.40
2021,06,27,04,47,15.40
2021,06,27,04,48,15.50
2021,06,27,04,49,15.50
2021,06,27,04,50,15.50
2021,06,27,04,51,15.60
2021,06,27,04,52,15.60
2021,06,27,04,53,15.60
2021,06,27,04,54,15.50
2021,06,27,04,55,15.50
2021,06,27,04,56,15.40
2021,06,27,04,57,15.40
2021,06,27,04,58,15.30
2021,06,27,04,59,15.30
2021,06,27,05,00,15.30
2021,06,27,05,01,15.30
2021,06,27,05,02,15.30
2021,06,27,05,03,15.30
2021,06,27,05,04,15.30
2021,06,27,05,05,15.30
2021,06,27,05,06,15.20
2021,06,27,05,07,15.10
2021,06,27,05,08,15.10
2021,06,27,05,09,15.00
2021,06,27,05,10,15.00
2021,06,27,05,11,14.90
2021,06,27,05,12,14.90
2021,06,27,05,13,14.90
2021,06,27,05,14,14.90
2021,06,27,05,15,14.90
2021,06,27,05,16,14.80
2021,06,27,05,17,14.80
2021,06,27,05,18,14.80
2021,06,27,05,19,14.80
2021,06,27,05,20,14.80
2021,06,27,05,21,14.80
2021,06,27,05,22,14.70
2021,06,27,05,23,14.60
2021,06,27,05,24,14.60
2021,06,27,05,25,14.50
2021,06,27,05,26,14.40
2021,06,27,05,27,14.40
2021,06,27,05,28,14.30
2021,06,27,05,29,14.30
2021,06,27,05,30,14.30
2021,06,27,05,31,14.30
2021,06,27,05,32,14.30
2021,06,27,05,33,14.30
2021,06,27,05,34,14.30
2021,06,27,05,35,14.30
2021,06,27,05,36,14.30
2021,06,27,05,37,14.30
2021,06,27,05,38,14.30
2021,06,27,05,39,14.40
2021,06,27,05,40,14.40
2021,06,27,05,41,14.40
2021,06,27,05,42,14.40
2021,06,27,05,43,14.40
2021,06,27,05,44,14.40
2021,06,27,05,45,14.30
2021,06,27,05,46,14.30
2021,06,27,05,47,14.30
2021,06,27,05,48,14.30
2021,06,27,05,49,14.30
2021,06,27,05,50,14.30
2021,06,27,05,51,14.30
2021,06,27,05,52,14.30
2021,06,27,05,53,14.30
2021,06,27,05,54,14.30
2021,06,27,05,55,14.40
2021,06,27,05,56,14.40
2021,06,27,05,57,14.40
2021,06,27,05,58,14.50
2021,06,27,05,59,14.50
2021,06,27,06,00,14.50
2021,06,27,06,01,14.60
2021,06,27,06,02,14.60
2021,06,27,06,03,14.70
2021,06,27,06,04,14.80
2021,06,27,06,05,14.80
2021,06,27,06,06,14.90
2021,06,27,06,07,15.00
2021,06,27,06,08,15.20
2021,06,27,06,09,15.40
2021,06,27,06,10,15.60
2021,06,27,06,11,15.80
2021,06,27,06,12,16.10
2021,06,27,06,13,16.40
2021,06,27,06,14,16.50
2021,06,27,06,15,16.70
2021,06,27,06,16,16.70
2021,06,27,06,17,16.70
2021,06,27,06,18,16.80
2021,06,27,06,19,16.90
2021,06,27,06,20,17.10
2021,06,27,06,21,17.20
2021,06,27,06,22,17.30
2021,06,27,06,23,17.40
2021,06,27,06,24,17.50
2021,06,27,06,25,17.60
2021,06,27,06,26,17.70
2021,06,27,06,27,17.70
2021,06,27,06,28,17.80
2021,06,27,06,29,17.80
2021,06,27,06,30,17.80
2021,06,27,06,31,17.80
2021,06,27,06,32,17.90
2021,06,27,06,33,17.90
2021,06,27,06,34,18.00
2021,06,27,06,35,18.00
2021,06,27,06,36,18.10
2021,06,27,06,37,18.20
2021,06,27,06,38,18.30
2021,06,27,06,39,18.40
2021,06,27,06,40,18.50
2021,06,27,06,41,18.50
2021,06,27,06,42,18.60
2021,06,27,06,43,18.70
2021,06,27,06,44,18.80
2021,06,27,06,45,18.90
2021,06,27,06,46,19.10
2021,06,27,06,47,19.20
2021,06,27,06,48,19.30
2021,06,27,06,49,19.40
2021,06,27,06,50,19.50
2021,06,27,06,51,19.60
2021,06,27,06,52,19.80
2021,06,27,06,53,19.80
2021,06,27,06,54,19.90
2021,06,27,06,55,20.00
2021,06,27,06,56,20.10
2021,06,27,06,57,20.20
2021,06,27,06,58,20.30
2021,06,27,06,59,20.40
2021,06,27,07,00,20.50
2021,06,27,07,01,20.50
2021,06,27,07,02,20.60
2021,06,27,07,03,20.70
2021,06,27,07,04,20.80
2021,06,27,07,05,20.80
2021,06,27,07,06,20.90
2021,06,27,07,07,21.00
2021,06,27,07,08,21.10
2021,06,27,07,09,21.10
2021,06,27,07,10,21.20
2021,06,27,07,11,21.20
2021,06,27,07,12,21.30
2021,06,27,07,13,21.40
2021,06,27,07,14,21.40
2021,06,27,07,15,21.50
2021,06,27,07,16,21.50
2021,06,27,07,17,21.60
2021,06,27,07,18,21.60
2021,06,27,07,19,21.70
2021,06,27,07,20,21.70
2021,06,27,07,21,21.70
2021,06,27,07,22,21.60
2021,06,27,07,23,21.50
2021,06,27,07,24,21.40
2021,06,27,07,25,21.30
2021,06,27,07,26,21.20
2021,06,27,07,27,21.10
2021,06,27,07,28,21.00
2021,06,27,07,29,20.90
2021,06,27,07,30,20.90
2021,06,27,07,31,20.80
2021,06,27,07,32,20.80
2021,06,27,07,33,20.80
2021,06,27,07,34,20.80
2021,06,27,07,35,20.80
2021,06,27,07,36,20.80
2021,06,27,07,37,20.80
2021,06,27,07,38,20.80
2021,06,27,07,39,20.80
2021,06,27,07,40,20.70
2021,06,27,07,41,20.50
2021,06,27,07,42,20.30
2021,06,27,07,43,20.10
2021,06,27,07,44,19.90
2021,06,27,07,45,19.90
2021,06,27,07,46,19.80
2021,06,27,07,47,19.80
2021,06,27,07,48,19.70
2021,06,27,07,49,19.70
2021,06,27,07,50,19.60
2021,06,27,07,51,19.60
2021,06,27,07,52,19.60
2021,06,27,07,53,19.60
2021,06,27,07,54,19.60
2021,06,27,07,55,19.70
2021,06,27,07,56,19.70
2021,06,27,07,57,19.70
2021,06,27,07,58,19.80
2021,06,27,07,59,19.80
2021,06,27,08,00,19.80
2021,06,27,08,01,19.90
2021,06,27,08,02,20.00
2021,06,27,08,03,20.00
2021,06,27,08,04,20.10
2021,06,27,08,05,20.10
2021,06,27,08,06,20.10
2021,06,27,08,07,20.10
2021,06,27,08,08,20.10
2021,06,27,08,09,20.20
2021,06,27,08,10,20.20
2021,06,27,08,11,20.20
2021,06,27,08,12,20.30
2021,06,27,08,13,20.30
2021,06,27,08,14,20.40
2021,06,27,08,15,20.40
2021,06,27,08,16,20.50
2021,06,27,08,17,20.60
2021,06,27,08,18,20.60
2021,06,27,08,19,20.70
2021,06,27,08,20,20.80
2021,06,27,08,21,20.90
2021,06,27,08,22,21.00
2021,06,27,08,23,21.00
2021,06,27,08,24,21.10
2021,06,27,08,25,21.20
2021,06,27,08,26,21.20
2021,06,27,08,27,21.30
2021,06,27,08,28,21.30
2021,06,27,08,29,21.40
2021,06,27,08,30,21.50
2021,06,27,08,31,21.50
2021,06,27,08,32,21.50
2021,06,27,08,33,21.60
2021,06,27,08,34,21.70
2021,06,27,08,35,21.70
2021,06,27,08,36,21.80
2021,06,27,08,37,21.90
2021,06,27,08,38,21.90
2021,06,27,08,39,22.00
2021,06,27,08,40,22.00
2021,06,27,08,41,22.10
2021,06,27,08,42,22.20
2021,06,27,08,43,22.20
2021,06,27,08,44,22.30
2021,06,27,08,45,22.30
2021,06,27,08,46,22.40
2021,06,27,08,47,22.50
2021,06,27,08,48,22.60
2021,06,27,08,49,22.60
2021,06,27,08,50,22.70
2021,06,27,08,51,22.70
2021,06,27,08,52,22.80
2021,06,27,08,53,22.80
2021,06,27,08,54,22.90
2021,06,27,08,55,22.90
2021,06,27,08,56,23.00
2021,06,27,08,57,23.10
2021,06,27,08,58,23.10
2021,06,27,08,59,23.20
2021,06,27,09,00,23.30
2021,06,27,09,01,23.40
2021,06,27,09,02,23.40
2021,06,27,09,03,23.50
2021,06,27,09,04,23.50
2021,06,27,09,05,23.60
2021,06,27,09,06,23.60
2021,06,27,09,07,23.70
2021,06,27,09,08,23.70
2021,06,27,09,09,23.80
2021,06,27,09,10,23.90
2021,06,27,09,11,24.00
2021,06,27,09,12,24.10
2021,06,27,09,13,24.20
2021,06,27,09,14,24.30
2021,06,27,09,15,24.40
2021,06,27,09,16,24.50
2021,06,27,09,17,24.60
2021,06,27,09,18,24.70
2021,06,27,09,19,24.80
2021,06,27,09,20,24.90
2021,06,27,09,21,25.00
2021,06,27,09,22,25.00
2021,06,27,09,23,25.10
2021,06,27,09,24,25.10
2021,06,27,09,25,25.20
2021,06,27,09,26,25.20
2021,06,27,09,27,25.20
2021,06,27,09,28,25.20
2021,06,27,09,29,25.20
2021,06,27,09,30,25.20
2021,06,27,09,31,25.20
2021,06,27,09,32,25.20
2021,06,27,09,33,25.20
2021,06,27,09,34,25.20
2021,06,27,09,35,25.30
2021,06,27,09,36,25.30
2021,06,27,09,37,25.30
2021,06,27,09,38,25.30
2021,06,27,09,39,25.40
2021,06,27,09,40,25.40
2021,06,27,09,41,25.50
2021,06,27,09,42,25.60
2021,06,27,09,43,25.70
2021,06,27,09,44,25.80
2021,06,27,09,45,25.90
2021,06,27,09,46,25.90
2021,06,27,09,47,26.00
2021,06,27,09,48,26.10
2021,06,27,09,49,26.10
2021,06,27,09,50,26.20
2021,06,27,09,51,26.30
2021,06,27,09,52,26.40
2021,06,27,09,53,26.40
2021,06,27,09,54,26.40
2021,06,27,09,55,26.50
2021,06,27,09,56,26.50
2021,06,27,09,57,26.60
2021,06,27,09,58,26.60
2021,06,27,09,59,26.60
2021,06,27,10,00,26.70
2021,06,27,10,01,26.70
2021,06,27,10,02,26.80
2021,06,27,10,03,26.80
2021,06,27,10,04,26.80
2021,06,27,10,05,26.90
2021,06,27,10,06,26.90
2021,06,27,10,07,26.90
2021,06,27,10,08,27.00
2021,06,27,10,09,27.00
2021,06,27,10,10,27.10
2021,06,27,10,11,27.10
2021,06,27,10,12,27.10
2021,06,27,10,13,27.10
2021,06,27,10,14,27.10
2021,06,27,10,15,27.10
2021,06,27,10,16,27.10
2021,06,27,10,17,27.10
2021,06,27,10,18,27.00
2021,06,27,10,19,27.00
2021,06,27,10,20,27.00
2021,06,27,10,21,27.00
2021,06,27,10,22,27.10
2021,06,27,10,23,27.10
2021,06,27,10,24,27.10
2021,06,27,10,25,27.20
2021,06,27,10,26,27.20
2021,06,27,10,27,27.20
2021,06,27,10,28,27.20
2021,06,27,10,29,27.30
2021,06,27,10,30,27.30
2021,06,27,10,31,27.30
2021,06,27,10,32,27.40
2021,06,27,10,33,27.40
2021,06,27,10,34,27.50
2021,06,27,10,35,27.50
2021,06,27,10,36,27.60
2021,06,27,10,37,27.60
2021,06,27,10,38,27.60
2021,06,27,10,39,27.70
2021,06,27,10,40,27.70
2021,06,27,10,41,27.70
2021,06,27,10,42,27.70
2021,06,27,10,43,27.70
2021,06,27,10,44,27.70
2021,06,27,10,45,27.70
2021,06,27,10,46,27.70
2021,06,27,10,47,27.70
2021,06,27,10,48,27.70
2021,06,27,10,49,27.70
2021,06,27,10,50,27.70
2021,06,27,10,51,27.70
2021,06,27,10,52,27.60
2021,06,27,10,53,27.60
2021,06,27,10,54,27.60
2021,06,27,10,55,27.60
2021,06,27,10,56,27.60
2021,06,27,10,57,27.60
2021,06,27,10,58,27.70
2021,06,27,10,59,27.70
2021,06,27,11,00,27.70
2021,06,27,11,01,27.80
2021,06,27,11,02,27.90
2021,06,27,11,03,27.90
2021,06,27,11,04,28.00
2021,06,27,11,05,28.10
2021,06,27,11,06,28.10
2021,06,27,11,07,28.20
2021,06,27,11,08,28.20
2021,06,27,11,09,28.30
2021,06,27,11,10,28.30
2021,06,27,11,11,28.40
2021,06,27,11,12,28.40
2021,06,27,11,13,28.40
2021,06,27,11,14,28.40
2021,06,27,11,15,28.40
2021,06,27,11,16,28.40
2021,06,27,11,17,28.40
2021,06,27,11,18,28.40
2021,06,27,11,19,28.40
2021,06,27,11,20,28.40
2021,06,27,11,21,28.40
2021,06,27,11,22,28.40
2021,06,27,11,23,28.50
2021,06,27,11,24,28.50
2021,06,27,11,25,28.50
2021,06,27,11,26,28.60
2021,06,27,11,27,28.60
2021,06,27,11,28,28.60
2021,06,27,11,29,28.70
2021,06,27,11,30,28.70
2021,06,27,11,31,28.70
2021,06,27,11,32,28.70
2021,06,27,11,33,28.70
2021,06,27,11,34,28.70
2021,06,27,11,35,28.70
2021,06,27,11,36,28.70
2021,06,27,11,37,28.60
2021,06,27,11,38,28.60
2021,06,27,11,39,28.60
2021,06,27,11,40,28.60
2021,06,27,11,41,28.60
2021,06,27,11,42,28.60
2021,06,27,11,43,28.60
2021,06,27,11,44,28.60
2021,06,27,11,45,28.60
2021,06,27,11,46,28.60
2021,06,27,11,47,28.60
2021,06,27,11,48,28.60
2021,06,27,11,49,28.60
2021,06,27,11,50,28.60
2021,06,27,11,51,28.70
2021,06,27,11,52,28.70
2021,06,27,11,53,28.70
2021,06,27,11,54,28.70
2021,06,27,11,55,28.80
2021,06,27,11,56,28.80
2021,06,27,11,57,28.80
2021,06,27,11,58,28.80
2021,06,27,11,59,28.80
2021,06,27,12,00,28.80
2021,06,27,12,01,28.90
2021,06,27,12,02,28.90
2021,06,27,12,03,28.90
2021,06,27,12,04,29.00
2021,06,27,12,05,29.00
2021,06,27,12,06,29.00
2021,06,27,12,07,29.10
2021,06,27,12,08,29.10
2021,06,27,12,09,29.10
2021,06,27,12,10,29.20
2021,06,27,12,11,29.20
2021,06,27,12,12,29.20
2021,06,27,12,13,29.20
2021,06,27,12,14,29.30
2021,06,27,12,15,29.30
2021,06,27,12,16,29.30
2021,06,27,12,17,29.40
2021,06,27,12,18,29.40
2021,06,27,12,19,29.40
2021,06,27,12,20,29.40
2021,06,27,12,21,29.40
2021,06,27,12,22,29.40
2021,06,27,12,23,29.40
2021,06,27,12,24,29.40
2021,06,27,12,25,29.40
2021,06,27,12,26,29.40
2021,06,27,12,27,29.40
2021,06,27,12,28,29.40
2021,06,27,12,29,29.50
2021,06,27,12,30,29.50
2021,06,27,12,31,29.50
2021,06,27,12,32,29.50
2021,06,27,12,33,29.40
2021,06,27,12,34,29.40
2021,06,27,12,35,29.30
2021,06,27,12,36,29.30
2021,06,27,12,37,29.30
2021,06,27,12,38,29.30
2021,06,27,12,39,29.30
2021,06,27,12,40,29.20
2021,06,27,12,41,29.20
2021,06,27,12,42,29.20
2021,06,27,12,43,29.20
2021,06,27,12,44,29.20
2021,06,27,12,45,29.20
2021,06,27,12,46,29.20
2021,06,27,12,47,29.10
2021,06,27,12,48,29.10
2021,06,27,12,49,29.10
2021,06,27,12,50,29.10
2021,06,27,12,51,29.10
2021,06,27,12,52,29.10
2021,06,27,12,53,29.10
2021,06,27,12,54,29.10
2021,06,27,12,55,29.00
2021,06,27,12,56,29.00
2021,06,27,12,57,29.00
2021,06,27,12,58,28.90
2021,06,27,12,59,28.90
2021,06,27,13,00,29.00
2021,06,27,13,01,29.00
2021,06,27,13,02,29.00
2021,06,27,13,03,29.10
2021,06,27,13,04,29.10
2021,06,27,13,05,29.10
2021,06,27,13,06,29.20
2021,06,27,13,07,29.20
2021,06,27,13,08,29.20
2021,06,27,13,09,29.20
2021,06,27,13,10,29.30
2021,06,27,13,11,29.30
2021,06,27,13,12,29.30
2021,06,27,13,13,29.30
2021,06,27,13,14,29.30
2021,06,27,13,15,29.30
2021,06,27,13,16,29.30
2021,06,27,13,17,29.30
2021,06,27,13,18,29.30
2021,06,27,13,19,29.30
2021,06,27,13,20,29.30
2021,06,27,13,21,29.30
2021,06,27,13,22,29.30
2021,06,27,13,23,29.30
2021,06,27,13,24,29.30
2021,06,27,13,25,29.30
2021,06,27,13,26,29.30
2021,06,27,13,27,29.30
2021,06,27,13,28,29.30
2021,06,27,13,29,29.30
2021,06,27,13,30,29.30
2021,06,27,13,31,29.30
2021,06,27,13,32,29.30
2021,06,27,13,33,29.30
2021,06,27,13,34,29.30
2021,06,27,13,35,29.20
2021,06,27,13,36,29.20
2021,06,27,13,37,29.10
2021,06,27,13,38,29.10
2021,06,27,13,39,29.10
2021,06,27,13,40,29.10
2021,06,27,13,41,29.00
2021,06,27,13,42,29.00
2021,06,27,13,43,28.90
2021,06,27,13,44,28.90
2021,06,27,13,45,28.90
2021,06,27,13,46,28.90
2021,06,27,13,47,28.90
2021,06,27,13,48,29.00
2021,06,27,13,49,29.10
2021,06,27,13,50,29.10
2021,06,27,13,51,29.20
2021,06,27,13,52,29.20
2021,06,27,13,53,29.30
2021,06,27,13,54,29.30
2021,06,27,13,55,29.40
2021,06,27,13,56,29.50
2021,06,27,13,57,29.60
2021,06,27,13,58,29.60
2021,06,27,13,59,29.70
2021,06,27,14,00,29.70
2021,06,27,14,01,29.70
2021,06,27,14,02,29.60
2021,06,27,14,03,29.60
2021,06,27,14,04,29.60
2021,06,27,14,05,29.60
2021,06,27,14,06,29.60
2021,06,27,14,07,29.60
2021,06,27,14,08,29.70
2021,06,27,14,09,29.70
2021,06,27,14,10,29.80
2021,06,27,14,11,29.80
2021,06,27,14,12,29.90
2021,06,27,14,13,30.00
2021,06,27,14,14,30.00
2021,06,27,14,15,30.10
2021,06,27,14,16,30.10
2021,06,27,14,17,30.10
2021,06,27,14,18,30.10
2021,06,27,14,19,30.20
2021,06,27,14,20,30.20
2021,06,27,14,21,30.20
2021,06,27,14,22,30.20
2021,06,27,14,23,30.20
2021,06,27,14,24,30.20
2021,06,27,14,25,30.30
2021,06,27,14,26,30.30
2021,06,27,14,27,30.30
2021,06,27,14,28,30.30
2021,06,27,14,29,30.30
2021,06,27,14,30,30.40
2021,06,27,14,31,30.40
2021,06,27,14,32,30.40
2021,06,27,14,33,30.40
2021,06,27,14,34,30.40
2021,06,27,14,35,30.40
2021,06,27,14,36,30.40
2021,06,27,14,37,30.40
2021,06,27,14,38,30.50
2021,06,27,14,39,30.40
2021,06,27,14,40,30.40
2021,06,27,14,41,30.40
2021,06,27,14,42,30.50
2021,06,27,14,43,30.50
2021,06,27,14,44,30.60
2021,06,27,14,45,30.60
2021,06,27,14,46,30.70
2021,06,27,14,47,30.70
2021,06,27,14,48,30.70
2021,06,27,14,49,30.70
2021,06,27,14,50,30.80
2021,06,27,14,51,30.80
2021,06,27,14,52,30.80
2021,06,27,14,53,30.90
2021,06,27,14,54,30.90
2021,06,27,14,55,31.00
2021,06,27,14,56,31.10
2021,06,27,14,57,31.10
2021,06,27,14,58,31.20
2021,06,27,14,59,31.30
2021,06,27,15,00,31.30
2021,06,27,15,01,31.30
2021,06,27,15,02,31.30
2021,06,27,15,03,31.30
2021,06,27,15,04,31.30
2021,06,27,15,05,31.30
2021,06,27,15,06,31.30
2021,06,27,15,07,31.30
2021,06,27,15,08,31.30
2021,06,27,15,09,31.20
2021,06,27,15,10,31.20
2021,06,27,15,11,31.20
2021,06,27,15,12,31.20
2021,06,27,15,13,31.20
2021,06,27,15,14,31.30
2021,06,27,15,15,31.30
2021,06,27,15,16,31.20
2021,06,27,15,17,31.20
2021,06,27,15,18,31.20
2021,06,27,15,19,31.20
2021,06,27,15,20,31.20
2021,06,27,15,21,31.10
2021,06,27,15,22,31.20
2021,06,27,15,23,31.20
2021,06,27,15,24,31.20
2021,06,27,15,25,31.20
2021,06,27,15,26,31.20
2021,06,27,15,27,31.20
2021,06,27,15,28,31.20
2021,06,27,15,29,31.20
2021,06,27,15,30,31.20
2021,06,27,15,31,31.10
2021,06,27,15,32,31.10
2021,06,27,15,33,31.10
2021,06,27,15,34,31.10
2021,06,27,15,35,31.10
2021,06,27,15,36,31.10
2021,06,27,15,37,31.10
2021,06,27,15,38,31.10
2021,06,27,15,39,31.10
2021,06,27,15,40,31.10
2021,06,27,15,41,31.00
2021,06,27,15,42,31.00
2021,06,27,15,43,31.00
2021,06,27,15,44,31.00
2021,06,27,15,45,31.00
2021,06,27,15,46,31.10
2021,06,27,15,47,31.10
2021,06,27,15,48,31.20
2021,06,27,15,49,31.20
2021,06,27,15,50,31.20
2021,06,27,15,51,31.20
2021,06,27,15,52,31.20
2021,06,27,15,53,31.20
2021,06,27,15,54,31.20
2021,06,27,15,55,31.10
2021,06,27,15,56,31.10
2021,06,27,15,57,31.00
2021,06,27,15,58,31.00
2021,06,27,15,59,30.90
2021,06,27,16,00,30.80
2021,06,27,16,01,30.70
2021,06,27,16,02,30.60
2021,06,27,16,03,30.50
2021,06,27,16,04,30.40
2021,06,27,16,05,30.40
2021,06,27,16,06,30.30
2021,06,27,16,07,30.20
2021,06,27,16,08,30.10
2021,06,27,16,09,30.10
2021,06,27,16,10,30.10
2021,06,27,16,11,30.20
2021,06,27,16,12,30.20
2021,06,27,16,13,30.30
2021,06,27,16,14,30.40
2021,06,27,16,15,30.50
2021,06,27,16,16,30.60
2021,06,27,16,17,30.60
2021,06,27,16,18,30.70
2021,06,27,16,19,30.70
2021,06,27,16,20,30.70
2021,06,27,16,21,30.80
2021,06,27,16,22,30.80
2021,06,27,16,23,30.70
2021,06,27,16,24,30.70
2021,06,27,16,25,30.70
2021,06,27,16,26,30.70
2021,06,27,16,27,30.70
2021,06,27,16,28,30.70
2021,06,27,16,29,30.70
2021,06,27,16,30,30.70
2021,06,27,16,31,30.60
2021,06,27,16,32,30.60
2021,06,27,16,33,30.60
2021,06,27,16,34,30.50
2021,06,27,16,35,30.50
2021,06,27,16,36,30.40
2021,06,27,16,37,30.40
2021,06,27,16,38,30.40
2021,06,27,16,39,30.40
2021,06,27,16,40,30.40
2021,06,27,16,41,30.50
2021,06,27,16,42,30.60
2021,06,27,16,43,30.60
2021,06,27,16,44,30.60
2021,06,27,16,45,30.60
2021,06,27,16,46,30.60
2021,06,27,16,47,30.60
2021,06,27,16,48,30.70
2021,06,27,16,49,30.70
2021,06,27,16,50,30.70
2021,06,27,16,51,30.70
2021,06,27,16,52,30.60
2021,06,27,16,53,30.60
2021,06,27,16,54,30.50
2021,06,27,16,55,30.40
2021,06,27,16,56,30.30
2021,06,27,16,57,30.20
2021,06,27,16,58,30.10
2021,06,27,16,59,30.10
2021,06,27,17,00,30.00
2021,06,27,17,01,29.90
2021,06,27,17,02,29.90
2021,06,27,17,03,29.90
2021,06,27,17,04,30.00
2021,06,27,17,05,30.00
2021,06,27,17,06,30.00
2021,06,27,17,07,30.10
2021,06,27,17,08,30.10
2021,06,27,17,09,30.00
2021,06,27,17,10,30.00
2021,06,27,17,11,30.00
2021,06,27,17,12,30.00
2021,06,27,17,13,30.10
2021,06,27,17,14,30.10
2021,06,27,17,15,30.10
2021,06,27,17,16,30.10
2021,06,27,17,17,30.20
2021,06,27,17,18,30.10
2021,06,27,17,19,30.10